This is the latest recevied weather packets stored in our database for station/object KB9HUO. If no packets are shown the sender has not sent any weather packets the latest 10 day(s).
| Time | Temp. | Humidity | Pressure | Rain* | Wind** | Luminosity | Snow |
|---|---|---|---|---|---|---|---|
| 1777498481 | 18.33° C | 54% | 1013.6 hPa | 0 mm | - | 137 W/m² | - |
| 1777498178 | 18.33° C | 55% | 1013.9 hPa | 0 mm | - | 80 W/m² | - |
| 1777497876 | 18.33° C | 54% | 1013.5 hPa | 0 mm | - | 67 W/m² | - |
| 1777497571 | 17.78° C | 54% | 1013.5 hPa | 0 mm | - | 107 W/m² | - |
| 1777497268 | 17.78° C | 59% | 1013.8 hPa | 0 mm | - | 51 W/m² | - |
| 1777496964 | 17.22° C | 56% | 1013.5 hPa | 0 mm | - | 60 W/m² | - |
| 1777496662 | 17.22° C | 57% | 1013.5 hPa | 0 mm | - | 105 W/m² | - |
| 1777496358 | 17.22° C | 56% | 1013.7 hPa | 0 mm | - | 84 W/m² | - |
| 1777496054 | 17.78° C | 56% | 1013.7 hPa | 0 mm | - | 84 W/m² | - |
| 1777495750 | 17.78° C | 61% | 1013.8 hPa | 0 mm | - | 119 W/m² | - |
| 1777495447 | 18.33° C | 57% | 1013.5 hPa | 0 mm | - | 86 W/m² | - |
| 1777495142 | 18.89° C | 55% | 1013.4 hPa | 0 mm | - | 125 W/m² | - |
| 1777494840 | 18.89° C | 55% | 1013.6 hPa | 0 mm | - | 55 W/m² | - |
| 1777494537 | 17.78° C | 59% | 1013.4 hPa | 0 mm | - | 72 W/m² | - |
| 1777494234 | 17.78° C | 56% | 1013.6 hPa | 0 mm | - | 140 W/m² | - |
| 1777493926 | 18.33° C | 57% | 1013.6 hPa | 0 mm | - | 101 W/m² | - |
| 1777493624 | 18.89° C | 56% | 1013.4 hPa | 0 mm | - | 124 W/m² | - |
| 1777493321 | 18.33° C | 56% | 1013.7 hPa | 0 mm | - | 144 W/m² | - |
| 1777493017 | 17.78° C | 57% | 1013.7 hPa | 0 mm | - | 239 W/m² | - |
| 1777492714 | 17.78° C | 56% | 1014 hPa | 0 mm | - | 103 W/m² | - |
| 1777492413 | 17.78° C | 58% | 1014 hPa | 0 mm | - | 107 W/m² | - |
| 1777492112 | 17.78° C | 60% | 1013.7 hPa | 0 mm | - | 142 W/m² | - |
| 1777491808 | 17.78° C | 63% | 1014.1 hPa | 0 mm | - | 145 W/m² | - |
| 1777491505 | 18.33° C | 59% | 1013.8 hPa | 0 mm | - | 125 W/m² | - |
| 1777491203 | 18.33° C | 60% | 1013.8 hPa | 0 mm | - | 188 W/m² | - |
* Rain latest hour (hover to see other rain measurements)
** Current wind speed in m/s (hover to see current wind gust speed)